Flag for Switzerland Weather past 2 weeks in Sion, Valais, Switzerland

Now
78 °F

Overcast.


Feels Like: 79 °F
Forecast: 65 / 96 °F
Wind: 7 mph from West

Location: Sion

Current Time: Aug 4, 2015 at 12:37:32 PM

Latest Report: Aug 4, 2015 at 11:00 AM


Visibility: 13 mi

Pressure: 29.96 "Hg (28.25 "Hg at 514m altitude)

Humidity: 50%

Dew point: 57 °F

Location of SionLocation

Historic Weather in Sion — Graph

°F

Sion temperature yesterday

Maximum temperature yesterday: 89 °F (at 6:00 PM)
Minimum temperature yesterday: 61 °F (at 7:00 AM)
Average temperature yesterday: 75 °F

Past Weeks' High & Low Weather Summary

 TemperatureHumidityPressure
High96 °F (Jul 21, 5:00 PM)97% (Jul 25, 4:00 AM)30.11 "Hg (Jul 25, 4:00 AM)
Low53 °F (Jul 31, 6:00 AM)26% (Jul 27, 4:00 PM)29.61 "Hg (Jul 24, 5:00 PM)
Average71 °F62%29.91 "Hg
* Reported Jul 20 11:00 AM — Aug 4 11:00 AM, Sion, Weather by CustomWeather, © 2015

Note: Actual official high and low records may vary slightly from our data, if they occured in-between our weather recording intervals... More about our weather records

Advertising

Sion weather history for previous 24 hours

 ConditionsComfort  
Time TempWeatherWind HumidityBarometerVisibility
11:00 AM
Tue, Aug 4
78 °FOvercast.7 mph50%29.96 "Hg12 mi
10:00 AM74 °FMild.2 mph56%29.98 "HgN/A
9:00 AM70 °FMild.2 mph67%29.99 "HgN/A
8:00 AM68 °FPartly sunny.3 mph69%30.00 "Hg16 mi
7:00 AM65 °FMild.3 mph77%30.01 "HgN/A
6:00 AM64 °FMild.3 mph78%30.01 "HgN/A
5:00 AM64 °FClear.1 mph82%30.02 "Hg16 mi
4:00 AM64 °FMild.2 mph82%30.02 "HgN/A
3:00 AM66 °FMild.3 mph78%30.01 "HgN/A
2:00 AM66 °FMild.2 mph81%30.03 "HgN/A
1:00 AM68 °FMild.1 mph76%30.01 "HgN/A
12:00 AM69 °FMild.No wind71%29.99 "HgN/A
11:00 PM
Mon, Aug 3
73 °FClear.5 mph61%29.96 "Hg19 mi
10:00 PM75 °FMild.1 mph58%29.95 "HgN/A
9:00 PM80 °FWarm.3 mph41%29.91 "HgN/A
8:00 PM83 °FPleasantly warm.6 mph38%29.89 "HgN/A
7:00 PM87 °FPleasantly warm.13 mph37%29.87 "HgN/A
6:00 PM89 °FHot.16 mph33%29.86 "HgN/A
5:00 PM89 °FHot.14 mph33%29.88 "HgN/A
4:00 PM88 °FHot.14 mph34%29.90 "HgN/A
3:00 PM88 °FPleasantly warm.8 mph37%29.92 "HgN/A
2:00 PM83 °FPassing clouds.8 mph42%29.96 "Hg22 mi
1:00 PM81 °FWarm.5 mph46%29.98 "HgN/A
12:00 PM78 °FWarm.3 mph49%30.01 "HgN/A
Weather by CustomWeather, © 2015

See weather overviewHow to use our weather pages